Time,TemperatureF,DewpointF,PressureIn,WindDirection,WindDirectionDegrees,WindSpeedMPH,WindSpeedGustMPH,Humidity,HourlyPrecipIn,Conditions,Clouds,dailyrainin,SoftwareType,DateUTC
2013-02-09 00:00:00,47.2,42.9,30.07,NW,315,0.0,1.1,85,0.00,,,0.00,WUHU216HW,2013-02-09 05:00:00,
2013-02-09 00:05:00,46.8,42.8,30.07,NW,315,0.0,0.7,86,0.00,,,0.00,WUHU216HW,2013-02-09 05:05:00,
2013-02-09 00:10:00,46.6,42.7,30.07,NW,315,1.1,1.1,86,0.00,,,0.00,WUHU216HW,2013-02-09 05:10:00,
2013-02-09 00:15:00,46.4,42.9,30.07,NW,315,0.4,1.1,87,0.00,,,0.00,WUHU216HW,2013-02-09 05:15:00,
2013-02-09 00:20:00,46.3,42.7,30.07,NW,315,0.7,1.1,87,0.00,,,0.00,WUHU216HW,2013-02-09 05:20:00,
2013-02-09 00:25:00,46.3,42.7,30.07,NW,315,0.0,0.9,87,0.00,,,0.00,WUHU216HW,2013-02-09 05:25:00,
2013-02-09 00:30:00,46.1,42.5,30.07,NW,315,0.0,0.9,87,0.00,,,0.00,WUHU216HW,2013-02-09 05:30:00,
2013-02-09 00:35:00,45.7,42.1,30.07,NW,315,0.0,0.2,87,0.00,,,0.00,WUHU216HW,2013-02-09 05:35:00,
2013-02-09 00:40:00,45.5,42.0,30.07,NW,315,0.0,0.0,87,0.00,,,0.00,WUHU216HW,2013-02-09 05:40:00,
2013-02-09 00:45:00,45.2,41.9,30.07,NW,315,0.4,0.7,88,0.00,,,0.00,WUHU216HW,2013-02-09 05:45:00,
2013-02-09 00:50:00,45.0,41.7,30.06,NW,315,0.0,0.7,88,0.00,,,0.00,WUHU216HW,2013-02-09 05:50:00,
2013-02-09 00:55:00,44.8,41.5,30.07,NW,315,0.0,0.4,88,0.00,,,0.00,WUHU216HW,2013-02-09 05:55:00,
2013-02-09 01:00:00,44.6,41.3,30.07,NW,315,0.0,0.0,88,0.00,,,0.00,WUHU216HW,2013-02-09 06:00:00,
2013-02-09 01:05:00,44.3,41.0,30.07,WSW,248,0.0,0.0,88,0.00,,,0.00,WUHU216HW,2013-02-09 06:05:00,
2013-02-09 01:10:00,44.1,40.8,30.07,NW,315,0.0,0.0,88,0.00,,,0.00,WUHU216HW,2013-02-09 06:10:00,
2013-02-09 01:15:00,43.7,40.4,30.06,NW,315,0.0,0.0,88,0.00,,,0.00,WUHU216HW,2013-02-09 06:15:00,
2013-02-09 01:20:00,43.4,40.1,30.06,NW,315,0.0,0.0,88,0.00,,,0.00,WUHU216HW,2013-02-09 06:20:00,
2013-02-09 01:25:00,43.2,39.9,30.06,SE,135,0.0,0.0,88,0.00,,,0.00,WUHU216HW,2013-02-09 06:25:00,
2013-02-09 01:30:00,43.0,39.4,30.06,NW,315,0.0,0.0,87,0.00,,,0.00,WUHU216HW,2013-02-09 06:30:00,
2013-02-09 01:35:00,42.8,39.5,30.06,NW,315,0.0,0.0,88,0.00,,,0.00,WUHU216HW,2013-02-09 06:35:00,
2013-02-09 01:40:00,42.7,39.3,30.06,NW,315,0.0,0.0,88,0.00,,,0.00,WUHU216HW,2013-02-09 06:40:00,
2013-02-09 01:45:00,42.5,39.5,30.07,NW,315,0.0,0.0,89,0.00,,,0.00,WUHU216HW,2013-02-09 06:45:00,
2013-02-09 01:50:00,42.3,39.3,30.07,NW,315,0.0,0.0,89,0.00,,,0.00,WUHU216HW,2013-02-09 06:50:00,
2013-02-09 01:55:00,42.1,39.2,30.07,NW,315,0.0,0.0,89,0.00,,,0.00,WUHU216HW,2013-02-09 06:55:00,
2013-02-09 02:00:00,41.9,38.6,30.07,NW,315,0.0,0.0,88,0.00,,,0.00,WUHU216HW,2013-02-09 07:00:00,
2013-02-09 02:05:00,41.8,38.8,30.07,NW,315,0.0,0.0,89,0.00,,,0.00,WUHU216HW,2013-02-09 07:05:00,
2013-02-09 02:10:00,41.6,38.6,30.07,NW,315,0.0,0.0,89,0.00,,,0.00,WUHU216HW,2013-02-09 07:10:00,
2013-02-09 02:15:00,41.4,38.4,30.08,NW,315,0.0,0.0,89,0.00,,,0.00,WUHU216HW,2013-02-09 07:15:00,
2013-02-09 02:20:00,41.4,38.4,30.08,NW,315,0.0,0.0,89,0.00,,,0.00,WUHU216HW,2013-02-09 07:20:00,
2013-02-09 02:25:00,41.0,38.1,30.08,NW,315,0.0,0.0,89,0.00,,,0.00,WUHU216HW,2013-02-09 07:25:00,
2013-02-09 02:30:00,41.0,38.1,30.08,NW,315,0.0,0.0,89,0.00,,,0.00,WUHU216HW,2013-02-09 07:30:00,
2013-02-09 02:34:00,40.7,37.7,30.08,NW,315,0.0,0.0,89,0.00,,,0.00,WUHU216HW,2013-02-09 07:34:00,
2013-02-09 02:39:00,40.7,37.7,30.08,NW,315,0.0,0.0,89,0.00,,,0.00,WUHU216HW,2013-02-09 07:39:00,
2013-02-09 02:44:00,40.7,38.0,30.08,NW,315,0.0,0.0,90,0.00,,,0.00,WUHU216HW,2013-02-09 07:44:00,
2013-02-09 02:49:00,40.5,37.8,30.09,NW,315,0.0,0.0,90,0.00,,,0.00,WUHU216HW,2013-02-09 07:49:00,
2013-02-09 02:54:00,40.3,37.6,30.09,NW,315,0.0,0.0,90,0.00,,,0.00,WUHU216HW,2013-02-09 07:54:00,
2013-02-09 02:59:00,40.0,37.3,30.10,NW,315,0.0,0.0,90,0.00,,,0.00,WUHU216HW,2013-02-09 07:59:00,
2013-02-09 03:04:00,40.0,37.3,30.10,NW,315,0.0,0.0,90,0.00,,,0.00,WUHU216HW,2013-02-09 08:04:00,
2013-02-09 03:09:00,39.6,36.9,30.10,NW,315,0.0,0.0,90,0.00,,,0.00,WUHU216HW,2013-02-09 08:09:00,
2013-02-09 03:14:00,39.6,36.9,30.10,NW,315,0.0,0.0,90,0.00,,,0.00,WUHU216HW,2013-02-09 08:14:00,
2013-02-09 03:19:00,39.2,36.5,30.10,NW,315,0.0,0.0,90,0.00,,,0.00,WUHU216HW,2013-02-09 08:19:00,
2013-02-09 03:24:00,39.1,36.4,30.11,WNW,293,0.0,0.0,90,0.00,,,0.00,WUHU216HW,2013-02-09 08:24:00,
2013-02-09 03:29:00,39.1,36.4,30.11,West,270,0.0,0.0,90,0.00,,,0.00,WUHU216HW,2013-02-09 08:29:00,
2013-02-09 03:34:00,38.7,36.0,30.11,WNW,293,0.0,0.0,90,0.00,,,0.00,WUHU216HW,2013-02-09 08:34:00,
2013-02-09 03:39:00,38.5,35.8,30.12,WNW,293,0.0,0.0,90,0.00,,,0.00,WUHU216HW,2013-02-09 08:39:00,
2013-02-09 03:44:00,38.5,35.8,30.12,WNW,293,0.0,0.0,90,0.00,,,0.00,WUHU216HW,2013-02-09 08:44:00,
2013-02-09 03:49:00,38.3,35.6,30.12,NW,315,0.0,0.4,90,0.00,,,0.00,WUHU216HW,2013-02-09 08:49:00,
2013-02-09 03:54:00,38.2,35.7,30.12,NW,315,0.0,0.4,91,0.00,,,0.00,WUHU216HW,2013-02-09 08:54:00,
2013-02-09 03:59:00,38.2,35.5,30.13,NW,315,0.2,0.7,90,0.00,,,0.00,WUHU216HW,2013-02-09 08:59:00,
2013-02-09 04:04:00,38.0,35.3,30.13,NW,315,0.0,0.7,90,0.00,,,0.00,WUHU216HW,2013-02-09 09:04:00,
2013-02-09 04:09:00,38.0,35.3,30.13,NW,315,0.7,0.7,90,0.00,,,0.00,WUHU216HW,2013-02-09 09:09:00,
2013-02-09 04:14:00,37.8,35.1,30.13,NW,315,0.0,0.7,90,0.00,,,0.00,WUHU216HW,2013-02-09 09:14:00,
2013-02-09 04:19:00,37.8,35.1,30.13,NW,315,0.0,0.7,90,0.00,,,0.00,WUHU216HW,2013-02-09 09:19:00,
2013-02-09 04:24:00,37.6,34.9,30.13,NW,315,0.0,0.0,90,0.00,,,0.00,WUHU216HW,2013-02-09 09:24:00,
2013-02-09 04:29:00,37.4,34.7,30.13,NW,315,0.0,0.0,90,0.00,,,0.00,WUHU216HW,2013-02-09 09:29:00,
2013-02-09 04:34:00,37.3,34.6,30.13,WNW,293,0.0,0.0,90,0.00,,,0.00,WUHU216HW,2013-02-09 09:34:00,
2013-02-09 04:39:00,37.1,34.4,30.14,WNW,293,0.0,0.0,90,0.00,,,0.00,WUHU216HW,2013-02-09 09:39:00,
2013-02-09 04:44:00,36.9,34.2,30.14,NW,315,0.0,0.0,90,0.00,,,0.00,WUHU216HW,2013-02-09 09:44:00,
2013-02-09 04:49:00,36.7,34.0,30.14,NW,315,0.0,0.0,90,0.00,,,0.00,WUHU216HW,2013-02-09 09:49:00,
2013-02-09 04:54:00,36.7,34.3,30.14,WSW,248,0.0,0.0,91,0.00,,,0.00,WUHU216HW,2013-02-09 09:54:00,
2013-02-09 04:59:00,36.5,34.1,30.15,NW,315,0.0,0.0,91,0.00,,,0.00,WUHU216HW,2013-02-09 09:59:00,
2013-02-09 05:04:00,36.4,33.7,30.15,NW,315,0.0,0.0,90,0.00,,,0.00,WUHU216HW,2013-02-09 10:04:00,
2013-02-09 05:09:00,36.4,33.9,30.15,NW,315,0.0,0.0,91,0.00,,,0.00,WUHU216HW,2013-02-09 10:09:00,
2013-02-09 05:14:00,36.2,33.8,30.15,NW,315,0.0,0.0,91,0.00,,,0.00,WUHU216HW,2013-02-09 10:14:00,
2013-02-09 05:19:00,36.2,33.8,30.15,NW,315,0.0,0.0,91,0.00,,,0.00,WUHU216HW,2013-02-09 10:19:00,
2013-02-09 05:24:00,36.0,33.6,30.15,NW,315,0.0,0.0,91,0.00,,,0.00,WUHU216HW,2013-02-09 10:24:00,
2013-02-09 05:29:00,36.0,33.6,30.16,NW,315,0.0,0.0,91,0.00,,,0.00,WUHU216HW,2013-02-09 10:29:00,
2013-02-09 05:34:00,35.8,33.4,30.16,WNW,293,0.0,0.0,91,0.00,,,0.00,WUHU216HW,2013-02-09 10:34:00,
2013-02-09 05:39:00,35.6,33.2,30.16,WNW,293,0.0,0.0,91,0.00,,,0.00,WUHU216HW,2013-02-09 10:39:00,
2013-02-09 05:44:00,35.6,33.2,30.16,West,270,0.0,0.0,91,0.00,,,0.00,WUHU216HW,2013-02-09 10:44:00,
2013-02-09 05:49:00,35.5,33.0,30.17,West,270,0.0,0.0,91,0.00,,,0.00,WUHU216HW,2013-02-09 10:49:00,
2013-02-09 05:54:00,35.5,33.0,30.17,NW,315,0.0,0.0,91,0.00,,,0.00,WUHU216HW,2013-02-09 10:54:00,
2013-02-09 05:59:00,35.3,32.9,30.17,NW,315,0.0,0.0,91,0.00,,,0.00,WUHU216HW,2013-02-09 10:59:00,
2013-02-09 06:04:00,35.3,32.9,30.17,NW,315,0.0,0.0,91,0.00,,,0.00,WUHU216HW,2013-02-09 11:04:00,
2013-02-09 06:09:00,35.1,32.7,30.17,NW,315,0.0,0.0,91,0.00,,,0.00,WUHU216HW,2013-02-09 11:09:00,
2013-02-09 06:14:00,34.9,32.5,30.17,NW,315,0.0,0.0,91,0.00,,,0.00,WUHU216HW,2013-02-09 11:14:00,
2013-02-09 06:19:00,34.9,32.5,30.18,NW,315,0.0,0.0,91,0.00,,,0.00,WUHU216HW,2013-02-09 11:19:00,
2013-02-09 06:24:00,34.7,32.3,30.17,NW,315,0.0,0.0,91,0.00,,,0.00,WUHU216HW,2013-02-09 11:24:00,
2013-02-09 06:29:00,34.4,32.0,30.18,NW,315,0.0,0.0,91,0.00,,,0.00,WUHU216HW,2013-02-09 11:29:00,
2013-02-09 06:34:00,34.2,31.8,30.18,NW,315,0.0,0.0,91,0.00,,,0.00,WUHU216HW,2013-02-09 11:34:00,
2013-02-09 06:39:00,34.0,31.6,30.18,NW,315,0.0,0.0,91,0.00,,,0.00,WUHU216HW,2013-02-09 11:39:00,
2013-02-09 06:44:00,34.0,31.6,30.18,WNW,293,0.0,0.0,91,0.00,,,0.00,WUHU216HW,2013-02-09 11:44:00,
2013-02-09 06:49:00,33.8,31.4,30.18,NW,315,0.0,0.0,91,0.00,,,0.00,WUHU216HW,2013-02-09 11:49:00,
2013-02-09 06:54:00,33.8,31.4,30.18,NW,315,0.0,0.0,91,0.00,,,0.00,WUHU216HW,2013-02-09 11:54:00,
2013-02-09 06:59:00,33.7,31.2,30.18,NW,315,0.0,0.0,91,0.00,,,0.00,WUHU216HW,2013-02-09 11:59:00,
2013-02-09 07:04:00,33.5,31.3,30.18,NW,315,0.0,0.0,92,0.00,,,0.00,WUHU216HW,2013-02-09 12:04:00,
2013-02-09 07:09:00,33.5,31.3,30.19,NW,315,0.0,0.0,92,0.00,,,0.00,WUHU216HW,2013-02-09 12:09:00,
2013-02-09 07:14:00,33.3,31.1,30.19,NW,315,0.0,0.0,92,0.00,,,0.00,WUHU216HW,2013-02-09 12:14:00,
2013-02-09 07:19:00,33.1,31.1,30.20,NW,315,0.0,0.0,92,0.00,,,0.00,WUHU216HW,2013-02-09 12:19:00,
2013-02-09 07:24:00,33.1,31.1,30.20,NW,315,0.0,0.0,92,0.00,,,0.00,WUHU216HW,2013-02-09 12:24:00,
2013-02-09 07:29:00,33.1,31.1,30.20,NW,315,0.0,0.0,92,0.00,,,0.00,WUHU216HW,2013-02-09 12:29:00,
2013-02-09 07:34:00,33.1,31.1,30.20,NW,315,0.0,0.4,92,0.00,,,0.00,WUHU216HW,2013-02-09 12:34:00,
2013-02-09 07:39:00,32.9,30.9,30.21,NW,315,0.0,0.4,92,0.00,,,0.00,WUHU216HW,2013-02-09 12:39:00,
2013-02-09 07:44:00,32.9,30.9,30.21,NW,315,0.0,0.2,92,0.00,,,0.00,WUHU216HW,2013-02-09 12:44:00,
2013-02-09 07:49:00,32.9,30.9,30.21,NW,315,0.0,0.0,92,0.00,,,0.00,WUHU216HW,2013-02-09 12:49:00,
2013-02-09 07:54:00,32.8,30.7,30.21,NW,315,0.0,0.0,92,0.00,,,0.00,WUHU216HW,2013-02-09 12:54:00,
2013-02-09 07:59:00,32.9,30.9,30.21,NW,315,0.0,0.0,92,0.00,,,0.00,WUHU216HW,2013-02-09 12:59:00,
2013-02-09 08:04:00,33.1,31.1,30.21,NW,315,0.2,0.2,92,0.00,,,0.00,WUHU216HW,2013-02-09 13:04:00,
2013-02-09 08:09:00,33.3,31.1,30.22,NW,315,0.0,0.4,92,0.00,,,0.00,WUHU216HW,2013-02-09 13:09:00,
2013-02-09 08:14:00,33.3,31.1,30.22,NW,315,0.0,0.4,92,0.00,,,0.00,WUHU216HW,2013-02-09 13:14:00,
2013-02-09 08:19:00,33.5,31.3,30.21,NW,315,0.0,0.4,92,0.00,,,0.00,WUHU216HW,2013-02-09 13:19:00,
2013-02-09 08:24:00,33.8,31.7,30.22,NW,315,0.0,0.0,92,0.00,,,0.00,WUHU216HW,2013-02-09 13:24:00,
2013-02-09 08:29:00,34.2,32.0,30.22,NW,315,0.0,0.0,92,0.00,,,0.00,WUHU216HW,2013-02-09 13:29:00,
2013-02-09 08:34:00,34.6,32.4,30.22,NW,315,0.0,0.4,92,0.00,,,0.00,WUHU216HW,2013-02-09 13:34:00,
2013-02-09 08:39:00,35.1,32.9,30.23,NW,315,0.0,0.4,92,0.00,,,0.00,WUHU216HW,2013-02-09 13:39:00,
2013-02-09 08:44:00,35.5,33.3,30.23,NW,315,0.0,0.0,92,0.00,,,0.00,WUHU216HW,2013-02-09 13:44:00,
2013-02-09 08:49:00,35.8,33.7,30.23,NW,315,0.0,0.0,92,0.00,,,0.00,WUHU216HW,2013-02-09 13:49:00,
2013-02-09 08:54:00,36.5,34.4,30.23,NW,315,0.0,0.2,92,0.00,,,0.00,WUHU216HW,2013-02-09 13:54:00,
2013-02-09 08:59:00,37.4,35.3,30.23,NW,315,0.0,0.7,92,0.00,,,0.00,WUHU216HW,2013-02-09 13:59:00,
2013-02-09 09:04:00,38.2,36.0,30.24,NW,315,0.4,0.7,92,0.00,,,0.00,WUHU216HW,2013-02-09 14:04:00,
2013-02-09 09:09:00,38.5,36.4,30.24,NW,315,0.4,0.4,92,0.00,,,0.00,WUHU216HW,2013-02-09 14:09:00,
2013-02-09 09:14:00,38.9,36.5,30.24,NW,315,0.4,0.4,91,0.00,,,0.00,WUHU216HW,2013-02-09 14:14:00,
2013-02-09 09:19:00,39.2,36.8,30.24,NW,315,0.0,0.7,91,0.00,,,0.00,WUHU216HW,2013-02-09 14:19:00,
2013-02-09 09:24:00,39.8,36.2,30.24,NW,315,0.4,1.1,87,0.00,,,0.00,WUHU216HW,2013-02-09 14:24:00,
2013-02-09 09:29:00,40.5,36.0,30.24,NNW,338,0.7,1.1,84,0.00,,,0.00,WUHU216HW,2013-02-09 14:29:00,
2013-02-09 09:34:00,41.0,35.6,30.24,NW,315,1.3,1.8,81,0.00,,,0.00,WUHU216HW,2013-02-09 14:34:00,
2013-02-09 09:39:00,41.6,35.8,30.25,NNW,338,1.1,1.8,80,0.00,,,0.00,WUHU216HW,2013-02-09 14:39:00,
2013-02-09 09:44:00,42.1,35.1,30.25,NW,315,1.3,1.3,76,0.00,,,0.00,WUHU216HW,2013-02-09 14:44:00,
2013-02-09 09:49:00,42.7,35.7,30.25,NW,315,0.0,1.3,76,0.00,,,0.00,WUHU216HW,2013-02-09 14:49:00,
2013-02-09 09:54:00,43.0,35.0,30.25,NW,315,1.1,1.3,73,0.00,,,0.00,WUHU216HW,2013-02-09 14:54:00,
2013-02-09 09:59:00,43.6,35.5,30.25,NNW,338,0.4,1.3,73,0.00,,,0.00,WUHU216HW,2013-02-09 14:59:00,
2013-02-09 10:04:00,44.1,36.0,30.26,NW,315,1.1,1.1,73,0.00,,,0.00,WUHU216HW,2013-02-09 15:04:00,
2013-02-09 10:09:00,44.1,36.0,30.26,NW,315,1.1,1.1,73,0.00,,,0.00,WUHU216HW,2013-02-09 15:09:00,
2013-02-09 10:33:00,47.0,37.0,30.26,North,0,0.7,0.7,68,0.00,,,0.00,WUHU216HW,2013-02-09 15:33:00,
2013-02-09 10:38:00,47.5,36.3,30.26,NNE,23,1.1,1.1,65,0.00,,,0.00,WUHU216HW,2013-02-09 15:38:00,
2013-02-09 10:43:00,48.4,36.4,30.26,NNW,338,0.4,1.1,63,0.00,,,0.00,WUHU216HW,2013-02-09 15:43:00,
2013-02-09 10:48:00,49.7,38.0,30.26,WNW,293,0.4,1.8,64,0.00,,,0.00,WUHU216HW,2013-02-09 15:48:00,
2013-02-09 10:53:00,51.5,39.2,30.26,NW,315,0.7,1.8,63,0.00,,,0.00,WUHU216HW,2013-02-09 15:53:00,
2013-02-09 10:58:00,52.0,38.1,30.25,NNW,338,0.2,1.6,59,0.00,,,0.00,WUHU216HW,2013-02-09 15:58:00,
2013-02-09 11:03:00,53.1,35.9,30.25,WSW,248,0.9,1.6,52,0.00,,,0.00,WUHU216HW,2013-02-09 16:03:00,
2013-02-09 11:08:00,54.4,39.4,30.25,North,0,1.1,1.1,57,0.00,,,0.00,WUHU216HW,2013-02-09 16:08:00,
2013-02-09 11:13:00,55.3,39.7,30.25,North,0,0.7,1.1,56,0.00,,,0.00,WUHU216HW,2013-02-09 16:13:00,
2013-02-09 11:18:00,55.8,39.3,30.25,WNW,293,0.4,1.3,54,0.00,,,0.00,WUHU216HW,2013-02-09 16:18:00,
2013-02-09 11:23:00,56.7,38.8,30.25,SSW,203,0.4,1.3,51,0.00,,,0.00,WUHU216HW,2013-02-09 16:23:00,
2013-02-09 11:28:00,56.5,38.6,30.25,North,0,0.9,1.3,51,0.00,,,0.00,WUHU216HW,2013-02-09 16:28:00,
2013-02-09 11:33:00,57.1,39.6,30.25,NW,315,0.7,1.3,52,0.00,,,0.00,WUHU216HW,2013-02-09 16:33:00,
2013-02-09 11:38:00,57.6,39.3,30.25,NW,315,1.1,1.3,50,0.00,,,0.00,WUHU216HW,2013-02-09 16:38:00,
2013-02-09 11:43:00,57.8,38.3,30.25,NNE,23,1.3,1.3,48,0.00,,,0.00,WUHU216HW,2013-02-09 16:43:00,
2013-02-09 11:48:00,58.9,39.8,30.25,SE,135,0.4,1.3,49,0.00,,,0.00,WUHU216HW,2013-02-09 16:48:00,
2013-02-09 11:53:00,59.6,39.9,30.25,NW,315,0.0,1.6,48,0.00,,,0.00,WUHU216HW,2013-02-09 16:53:00,
2013-02-09 11:58:00,60.5,40.7,30.25,NW,315,0.2,1.6,48,0.00,,,0.00,WUHU216HW,2013-02-09 16:58:00,
2013-02-09 12:03:00,61.2,40.1,30.25,North,0,1.1,1.1,46,0.00,,,0.00,WUHU216HW,2013-02-09 17:03:00,
2013-02-09 12:08:00,60.8,36.4,30.25,SW,225,1.8,1.8,40,0.00,,,0.00,WUHU216HW,2013-02-09 17:08:00,
2013-02-09 12:13:00,59.9,35.6,30.24,East,90,1.3,2.7,40,0.00,,,0.00,WUHU216HW,2013-02-09 17:13:00,
2013-02-09 12:18:00,59.0,34.0,30.24,SSW,203,2.0,2.7,39,0.00,,,0.00,WUHU216HW,2013-02-09 17:18:00,
2013-02-09 12:23:00,59.9,38.4,30.24,NW,315,0.2,2.2,45,0.00,,,0.00,WUHU216HW,2013-02-09 17:23:00,
2013-02-09 12:28:00,62.3,40.0,30.24,NNE,23,0.2,1.1,44,0.00,,,0.00,WUHU216HW,2013-02-09 17:28:00,
2013-02-09 12:33:00,62.8,36.7,30.23,SW,225,1.3,1.3,38,0.00,,,0.00,WUHU216HW,2013-02-09 17:33:00,
2013-02-09 12:38:00,62.5,36.4,30.23,West,270,1.1,1.3,38,0.00,,,0.00,WUHU216HW,2013-02-09 17:38:00,
2013-02-09 12:43:00,63.4,39.8,30.23,NNW,338,0.7,1.1,42,0.00,,,0.00,WUHU216HW,2013-02-09 17:43:00,
2013-02-09 12:47:00,65.0,41.9,30.23,NW,315,0.7,1.1,43,0.00,,,0.00,WUHU216HW,2013-02-09 17:47:00,
2013-02-09 12:52:00,66.4,40.7,30.23,SE,135,0.2,1.1,39,0.00,,,0.00,WUHU216HW,2013-02-09 17:52:00,
2013-02-09 12:57:00,65.9,38.7,30.23,East,90,0.9,1.8,37,0.00,,,0.00,WUHU216HW,2013-02-09 17:57:00,
2013-02-09 13:02:00,65.9,40.1,30.22,NW,315,1.8,1.8,39,0.00,,,0.00,WUHU216HW,2013-02-09 18:02:00,
2013-02-09 13:07:00,65.5,40.6,30.22,NW,315,1.1,1.8,40,0.00,,,0.00,WUHU216HW,2013-02-09 18:07:00,
2013-02-09 13:12:00,65.3,39.0,30.22,NNW,338,0.4,1.8,38,0.00,,,0.00,WUHU216HW,2013-02-09 18:12:00,
2013-02-09 13:17:00,65.3,38.3,30.22,SW,225,1.1,1.8,37,0.00,,,0.00,WUHU216HW,2013-02-09 18:17:00,
2013-02-09 13:22:00,66.6,41.6,30.22,WNW,293,0.2,1.6,40,0.00,,,0.00,WUHU216HW,2013-02-09 18:22:00,
2013-02-09 13:27:00,68.8,43.5,30.22,NW,315,0.9,1.3,40,0.00,,,0.00,WUHU216HW,2013-02-09 18:27:00,
2013-02-09 13:32:00,68.2,40.8,30.22,NW,315,0.7,1.8,37,0.00,,,0.00,WUHU216HW,2013-02-09 18:32:00,
2013-02-09 13:37:00,69.3,43.2,30.21,NW,315,0.2,1.8,39,0.00,,,0.00,WUHU216HW,2013-02-09 18:37:00,
2013-02-09 13:42:00,70.6,38.4,30.21,SW,225,2.5,2.5,31,0.00,,,0.00,WUHU216HW,2013-02-09 18:42:00,
2013-02-09 13:47:00,69.7,38.4,30.21,ESE,113,0.4,2.5,32,0.00,,,0.00,WUHU216HW,2013-02-09 18:47:00,
2013-02-09 13:52:00,69.1,35.5,30.21,SE,135,1.1,1.8,29,0.00,,,0.00,WUHU216HW,2013-02-09 18:52:00,
2013-02-09 13:57:00,67.9,33.3,30.21,SSW,203,2.5,3.6,28,0.00,,,0.00,WUHU216HW,2013-02-09 18:57:00,
2013-02-09 14:02:00,67.0,36.8,30.21,NW,315,0.9,3.6,33,0.00,,,0.00,WUHU216HW,2013-02-09 19:02:00,
2013-02-09 14:07:00,70.9,41.1,30.21,SSW,203,0.4,1.8,34,0.00,,,0.00,WUHU216HW,2013-02-09 19:07:00,
2013-02-09 14:12:00,71.5,37.5,30.21,SSE,158,0.7,1.1,29,0.00,,,0.00,WUHU216HW,2013-02-09 19:12:00,
2013-02-09 14:17:00,70.7,36.9,30.20,ESE,113,0.7,1.1,29,0.00,,,0.00,WUHU216HW,2013-02-09 19:17:00,
2013-02-09 14:22:00,70.7,33.9,30.20,SW,225,1.6,1.6,26,0.00,,,0.00,WUHU216HW,2013-02-09 19:22:00,
2013-02-09 14:27:00,71.3,37.4,30.20,SE,135,0.7,1.6,29,0.00,,,0.00,WUHU216HW,2013-02-09 19:27:00,
2013-02-09 14:32:00,70.7,37.9,30.20,NNE,23,0.9,1.8,30,0.00,,,0.00,WUHU216HW,2013-02-09 19:32:00,
2013-02-09 14:37:00,73.1,37.8,30.20,NNE,23,0.9,1.8,28,0.00,,,0.00,WUHU216HW,2013-02-09 19:37:00,
2013-02-09 14:42:00,72.4,33.1,30.19,WSW,248,2.7,2.7,24,0.00,,,0.00,WUHU216HW,2013-02-09 19:42:00,
2013-02-09 14:47:00,70.2,31.3,30.19,WSW,248,3.4,3.4,24,0.00,,,0.00,WUHU216HW,2013-02-09 19:47:00,
2013-02-09 14:52:00,70.0,33.2,30.19,South,180,1.6,3.4,26,0.00,,,0.00,WUHU216HW,2013-02-09 19:52:00,
2013-02-09 14:57:00,70.9,35.0,30.18,ESE,113,1.3,1.8,27,0.00,,,0.00,WUHU216HW,2013-02-09 19:57:00,
2013-02-09 15:02:00,72.4,38.3,30.18,NNW,338,0.4,1.3,29,0.00,,,0.00,WUHU216HW,2013-02-09 20:02:00,
2013-02-09 15:07:00,72.4,33.1,30.18,WSW,248,0.4,2.2,24,0.00,,,0.00,WUHU216HW,2013-02-09 20:07:00,
2013-02-09 15:12:00,74.0,39.6,30.18,SSW,203,1.1,2.2,29,0.00,,,0.00,WUHU216HW,2013-02-09 20:12:00,
2013-02-09 15:17:00,73.8,37.5,30.18,SW,225,0.4,1.3,27,0.00,,,0.00,WUHU216HW,2013-02-09 20:17:00,
2013-02-09 15:22:00,73.8,37.5,30.18,SW,225,0.4,1.3,27,0.00,,,0.00,WUHU216HW,2013-02-09 20:22:00,
2013-02-09 15:47:00,67.0,33.6,30.18,WSW,248,0.2,0.2,29,0.00,,,0.00,WUHU216HW,2013-02-09 20:47:00,
2013-02-09 15:52:00,65.9,34.4,30.18,SW,225,0.0,0.4,31,0.00,,,0.00,WUHU216HW,2013-02-09 20:52:00,
2013-02-09 15:57:00,65.2,33.8,30.18,SW,225,0.4,1.1,31,0.00,,,0.00,WUHU216HW,2013-02-09 20:57:00,
2013-02-09 16:02:00,64.6,34.0,30.18,SSW,203,0.0,1.1,32,0.00,,,0.00,WUHU216HW,2013-02-09 21:02:00,
2013-02-09 16:07:00,64.4,32.4,30.18,West,270,0.9,1.1,30,0.00,,,0.00,WUHU216HW,2013-02-09 21:07:00,
2013-02-09 16:12:00,64.3,32.9,30.18,SE,135,0.2,1.6,31,0.00,,,0.00,WUHU216HW,2013-02-09 21:12:00,
2013-02-09 16:17:00,63.7,31.8,30.18,West,270,0.4,1.6,30,0.00,,,0.00,WUHU216HW,2013-02-09 21:17:00,
2013-02-09 16:22:00,63.2,32.7,30.18,NE,45,0.0,0.7,32,0.00,,,0.00,WUHU216HW,2013-02-09 21:22:00,
2013-02-09 16:27:00,62.8,31.7,30.18,SSW,203,0.0,0.4,31,0.00,,,0.00,WUHU216HW,2013-02-09 21:27:00,
2013-02-09 16:32:00,62.6,32.2,30.18,SW,225,0.4,0.4,32,0.00,,,0.00,WUHU216HW,2013-02-09 21:32:00,
2013-02-09 16:37:00,62.5,32.0,30.18,NW,315,0.4,1.1,32,0.00,,,0.00,WUHU216HW,2013-02-09 21:37:00,
2013-02-09 16:42:00,62.3,32.6,30.18,NNE,23,0.7,1.1,33,0.00,,,0.00,WUHU216HW,2013-02-09 21:42:00,
2013-02-09 16:47:00,61.9,32.3,30.18,SSE,158,0.0,0.9,33,0.00,,,0.00,WUHU216HW,2013-02-09 21:47:00,
2013-02-09 16:52:00,61.6,32.0,30.18,WSW,248,0.0,0.2,33,0.00,,,0.00,WUHU216HW,2013-02-09 21:52:00,
2013-02-09 16:57:00,61.2,32.4,30.18,SSE,158,0.0,0.0,34,0.00,,,0.00,WUHU216HW,2013-02-09 21:57:00,
2013-02-09 17:02:00,60.8,32.0,30.18,NNW,338,0.0,0.0,34,0.00,,,0.00,WUHU216HW,2013-02-09 22:02:00,
2013-02-09 17:07:00,60.7,32.6,30.18,North,0,0.0,0.0,35,0.00,,,0.00,WUHU216HW,2013-02-09 22:07:00,
2013-02-09 17:12:00,60.5,33.2,30.18,NNW,338,0.0,0.4,36,0.00,,,0.00,WUHU216HW,2013-02-09 22:12:00,
2013-02-09 17:17:00,60.3,33.0,30.18,SSE,158,0.0,0.4,36,0.00,,,0.00,WUHU216HW,2013-02-09 22:17:00,
2013-02-09 17:22:00,60.1,33.6,30.18,SW,225,0.0,0.0,37,0.00,,,0.00,WUHU216HW,2013-02-09 22:22:00,
2013-02-09 17:27:00,59.9,33.4,30.18,SW,225,0.0,0.0,37,0.00,,,0.00,WUHU216HW,2013-02-09 22:27:00,
2013-02-09 17:32:00,59.6,33.1,30.18,SSE,158,0.0,0.0,37,0.00,,,0.00,WUHU216HW,2013-02-09 22:32:00,
2013-02-09 17:37:00,59.2,33.5,30.18,SSE,158,0.0,0.0,38,0.00,,,0.00,WUHU216HW,2013-02-09 22:37:00,
2013-02-09 17:42:00,58.7,33.0,30.18,SSE,158,0.0,0.0,38,0.00,,,0.00,WUHU216HW,2013-02-09 22:42:00,
2013-02-09 17:47:00,58.3,33.4,30.18,SSE,158,0.0,0.0,39,0.00,,,0.00,WUHU216HW,2013-02-09 22:47:00,
2013-02-09 17:52:00,57.6,33.5,30.18,SSE,158,0.0,0.0,40,0.00,,,0.00,WUHU216HW,2013-02-09 22:52:00,
2013-02-09 17:57:00,57.1,34.1,30.18,SSE,158,0.0,0.0,42,0.00,,,0.00,WUHU216HW,2013-02-09 22:57:00,
2013-02-09 18:02:00,56.5,34.2,30.19,SSE,158,0.0,0.0,43,0.00,,,0.00,WUHU216HW,2013-02-09 23:02:00,
2013-02-09 18:07:00,56.0,34.2,30.19,SSE,158,0.0,0.0,44,0.00,,,0.00,WUHU216HW,2013-02-09 23:07:00,
2013-02-09 18:12:00,55.4,34.3,30.19,SSE,158,0.0,0.0,45,0.00,,,0.00,WUHU216HW,2013-02-09 23:12:00,
2013-02-09 18:17:00,54.9,34.4,30.19,SSE,158,0.0,0.0,46,0.00,,,0.00,WUHU216HW,2013-02-09 23:17:00,
2013-02-09 18:22:00,54.4,33.8,30.20,SSE,158,0.0,0.0,46,0.00,,,0.00,WUHU216HW,2013-02-09 23:22:00,
2013-02-09 18:27:00,54.2,34.8,30.20,SSE,158,0.0,0.0,48,0.00,,,0.00,WUHU216HW,2013-02-09 23:27:00,
2013-02-09 18:32:00,53.8,35.1,30.19,SSE,158,0.0,0.0,49,0.00,,,0.00,WUHU216HW,2013-02-09 23:32:00,
2013-02-09 18:37:00,53.3,35.1,30.19,SSE,158,0.0,0.0,50,0.00,,,0.00,WUHU216HW,2013-02-09 23:37:00,
2013-02-09 18:42:00,52.9,35.7,30.20,SSE,158,0.0,0.0,52,0.00,,,0.00,WUHU216HW,2013-02-09 23:42:00,
2013-02-09 18:47:00,52.4,35.7,30.20,SSE,158,0.0,0.0,53,0.00,,,0.00,WUHU216HW,2013-02-09 23:47:00,
2013-02-09 18:52:00,52.0,36.3,30.20,SSE,158,0.0,0.0,55,0.00,,,0.00,WUHU216HW,2013-02-09 23:52:00,
2013-02-09 18:57:00,51.5,36.2,30.20,NW,315,0.2,0.4,56,0.00,,,0.00,WUHU216HW,2013-02-09 23:57:00,
2013-02-09 19:02:00,51.1,35.9,30.20,NW,315,0.0,0.4,56,0.00,,,0.00,WUHU216HW,2013-02-10 00:02:00,
2013-02-09 19:07:00,50.8,35.6,30.20,NW,315,0.0,0.0,56,0.00,,,0.00,WUHU216HW,2013-02-10 00:07:00,
2013-02-09 19:12:00,50.4,35.7,30.20,NW,315,0.0,0.0,57,0.00,,,0.00,WUHU216HW,2013-02-10 00:12:00,
2013-02-09 19:17:00,50.0,35.4,30.21,NW,315,0.0,0.0,57,0.00,,,0.00,WUHU216HW,2013-02-10 00:17:00,
2013-02-09 19:22:00,49.7,35.5,30.21,NW,315,0.0,0.0,58,0.00,,,0.00,WUHU216HW,2013-02-10 00:22:00,
2013-02-09 19:27:00,49.3,35.2,30.21,NW,315,0.0,0.0,58,0.00,,,0.00,WUHU216HW,2013-02-10 00:27:00,
2013-02-09 19:32:00,49.0,35.3,30.22,NW,315,0.0,0.0,59,0.00,,,0.00,WUHU216HW,2013-02-10 00:32:00,
2013-02-09 19:37:00,48.6,34.9,30.22,NW,315,0.0,0.9,59,0.00,,,0.00,WUHU216HW,2013-02-10 00:37:00,
2013-02-09 19:42:00,48.4,35.3,30.23,SSW,203,0.0,0.9,60,0.00,,,0.00,WUHU216HW,2013-02-10 00:42:00,
2013-02-09 19:47:00,48.2,35.1,30.23,WSW,248,0.0,0.0,60,0.00,,,0.00,WUHU216HW,2013-02-10 00:47:00,
2013-02-09 19:52:00,47.9,34.7,30.23,West,270,0.0,0.0,60,0.00,,,0.00,WUHU216HW,2013-02-10 00:52:00,
2013-02-09 19:57:00,47.5,35.2,30.23,NW,315,0.0,0.0,62,0.00,,,0.00,WUHU216HW,2013-02-10 00:57:00,
2013-02-09 20:02:00,47.2,35.2,30.23,NW,315,0.0,0.0,63,0.00,,,0.00,WUHU216HW,2013-02-10 01:02:00,
2013-02-09 20:07:00,46.8,34.8,30.23,NW,315,0.0,0.0,63,0.00,,,0.00,WUHU216HW,2013-02-10 01:07:00,
2013-02-09 20:12:00,46.4,34.9,30.24,NW,315,0.0,0.0,64,0.00,,,0.00,WUHU216HW,2013-02-10 01:12:00,
2013-02-09 20:17:00,46.3,35.1,30.24,NW,315,0.0,0.4,65,0.00,,,0.00,WUHU216HW,2013-02-10 01:17:00,
2013-02-09 20:22:00,46.1,34.9,30.24,NW,315,0.0,0.4,65,0.00,,,0.00,WUHU216HW,2013-02-10 01:22:00,
2013-02-09 20:27:00,45.9,34.7,30.24,NW,315,0.0,0.4,65,0.00,,,0.00,WUHU216HW,2013-02-10 01:27:00,
2013-02-09 20:32:00,45.7,34.6,30.24,NW,315,0.0,0.4,65,0.00,,,0.00,WUHU216HW,2013-02-10 01:32:00,
2013-02-09 20:37:00,45.5,34.8,30.24,NW,315,0.0,0.0,66,0.00,,,0.00,WUHU216HW,2013-02-10 01:37:00,
2013-02-09 20:42:00,45.4,35.0,30.24,NW,315,0.2,0.2,67,0.00,,,0.00,WUHU216HW,2013-02-10 01:42:00,
2013-02-09 20:47:00,45.2,35.2,30.25,NW,315,0.0,0.4,68,0.00,,,0.00,WUHU216HW,2013-02-10 01:47:00,
2013-02-09 20:52:00,45.0,35.1,30.25,NW,315,0.0,0.4,68,0.00,,,0.00,WUHU216HW,2013-02-10 01:52:00,
2013-02-09 20:57:00,44.6,34.8,30.25,NW,315,0.0,0.0,68,0.00,,,0.00,WUHU216HW,2013-02-10 01:57:00,
2013-02-09 21:02:00,44.3,35.1,30.25,NW,315,0.2,0.2,70,0.00,,,0.00,WUHU216HW,2013-02-10 02:02:00,
2013-02-09 21:03:00,44.3,35.5,30.25,NW,315,0.2,0.4,71,0.00,,,0.00,WUHU216HW,2013-02-10 02:03:00,